Temperature
6 5 4 5 5 6 5 5 5 5 5 5 4 4 5 5 5 5 5 6 6 7 7 8 8 8 8 8 8 8 8 9 9 9 9 9 9 9 9 9 9 9 9 9
5 4 5 5 5 5 5 5 5 5 5 5 4 4 4 4 4 5 5 5 6 6 7 7 7 8 7 7 8 8 8 8 9 9 9 8 8 9 9 9 9 9 9 9
5 5 5 5 5 5 5 4 4 5 4 4 4 4 4 4 4 5 5 6 6 6 6 7 7 7 7 7 7 7 7 8 8 8 8 8 8 8 8 8 8 8 8 8
4 4 5 5 4 5 5 5 4 4 4 3 4 4 4 4 3 3 4 4 5 6 6 6 6 7 7 7 7 7 7 7 8 8 7 7 8 8 8 8 8 8 8 8
4 4 4 4 4 4 4 4 4 4 3 2 2 3 3 3 3 3 3 4 5 5 5 6 6 6 6 6 6 7 7 7 7 7 7 7 7 7 7 7 7 7 7 7
3 4 4 4 4 4 3 3 2 1 1 2 2 2 3 2 3 3 3 3 4 5 5 5 6 6 6 6 6 6 6 7 7 7 7 7 7 7 7 7 7 7 7 7
3 4 4 4 3 3 3 3 2 2 1 2 2 2 2 3 2 2 2 3 4 4 4 4 5 5 5 6 6 6 6 6 6 6 6 6 6 6 6 7 7 7 7 7
3 3 3 3 3 3 3 3 3 3 2 2 1 1 2 3 2 3 3 3 3 4 4 4 4 5 5 5 5 5 6 6 6 6 6 6 6 6 6 6 6 6 6 6
2 2 3 3 3 3 2 2 2 1 -0 0 1 0 1 2 2 2 2 2 3 3 3 4 4 4 4 4 5 5 5 5 5 6 6 6 6 6 6 6 6 6 6 6
2 1 2 2 3 2 2 1 0 1 1 2 2 1 2 2 2 1 1 1 2 3 3 3 3 4 4 4 4 4 4 5 5 5 5 5 5 5 5 5 5 5 5 5
1 1 1 1 1 1 1 1 0 -1 0 1 1 2 2 1 1 1 0 1 2 2 2 3 3 3 3 3 3 4 4 4 4 5 5 5 5 5 5 5 5 5 5 5
0 -1 -0 0 1 1 1 0 -0 1 -0 -1 -0 1 2 1 0 0 1 1 2 2 2 2 2 2 3 3 3 3 3 3 4 4 4 4 5 5 5 5 4 4 4 4
-0 -0 0 1 1 -0 -0 -0 -1 -1 -2 -2 -1 1 1 0 0 1 1 2 2 2 2 2 2 2 2 2 2 2 3 3 3 3 3 4 4 4 4 4 4 4 4 3
1 -1 0 2 1 -0 -1 -1 -1 -1 -1 -2 -1 0 1 1 0 0 1 2 2 2 2 2 2 2 2 2 2 2 2 2 2 3 3 3 3 3 3 3 3 3 3 3
-0 -1 -2 -1 -1 -1 -1 -1 -1 -1 -1 -1 -0 -1 0 0 -0 1 1 1 1 1 1 1 1 1 1 1 1 1 2 2 2 2 2 2 3 2 2 3 3 3 3 2
-2 -2 -2 -2 -1 -1 -1 -1 -1 -1 -1 -1 -1 -1 -0 0 0 0 0 1 1 1 1 1 1 1 1 1 1 1 1 1 1 1 2 2 2 2 2 2 2 2 2 2
-3 -2 -2 -2 -2 -1 -1 -1 -1 -2 -2 -2 -1 -0 -1 -1 -1 -0 0 1 1 1 1 1 1 1 1 1 1 1 1 1 1 1 1 1 1 1 1 1 1 1 1 1
-3 -3 -3 -3 -2 -1 1 -1 -1 -1 -2 -2 -2 -1 -1 -1 0 1 1 1 1 1 1 1 1 1 1 0 0 0 0 -0 -0 0 0 0 0 1 1 1 1 1 1 1
-3 -3 -4 -3 -3 -2 -1 -1 -2 -2 -2 -2 -2 -2 -1 -1 -1 -0 1 1 1 0 0 0 0 0 0 -0 -0 -0 -0 -1 -1 -1 -0 -0 0 0 0 0 0 0 0 0
-4 -4 -4 -4 -3 -2 0 -1 -1 -1 -1 -1 -2 -2 -2 -2 -2 -1 1 1 0 0 0 0 0 -0 -0 -0 -1 -1 -1 -1 -1 -1 -1 -1 -1 -1 -1 -1 -1 -1 -1 -1
-4 -5 -4 -4 -3 -3 -2 -2 -1 -1 -0 -0 -1 -1 -1 -2 -1 0 0 0 0 -0 -0 -0 -0 -0 -1 -1 -1 -1 -1 -1 -1 -2 -2 -1 -1 -1 -1 -1 -1 -1 -1 -1
-4 -5 -5 -5 -4 -2 -2 -3 -2 -1 0 0 0 0 -0 -0 0 0 -0 -0 -0 -0 -1 -1 -1 -1 -1 -1 -2 -2 -2 -2 -2 -2 -2 -2 -2 -2 -2 -2 -2 -2 -2 -2
-5 -4 -4 -4 -2 -2 -2 -1 -0 0 -0 0 0 0 -0 -0 -0 -0 -1 -1 -1 -1 -1 -1 -1 -1 -2 -2 -2 -2 -2 -2 -2 -2 -2 -2 -2 -2 -2 -2 -2 -2 -2 -2
-5 -5 -5 -5 -4 -3 -2 -1 -1 -0 -0 -0 -0 -0 -1 -1 -1 -1 -1 -1 -1 -1 -2 -2 -2 -2 -2 -2 -2 -2 -2 -3 -3 -3 -3 -3 -3 -3 -3 -2 -3 -3 -3 -3
-5 -6 -6 -5 -5 -4 -2 -1 -0 -1 -1 -1 -1 -1 -1 -1 -1 -1 -1 -1 -2 -2 -2 -2 -2 -2 -2 -2 -2 -3 -3 -3 -3 -3 -3 -3 -3 -3 -3 -3 -3 -3 -3 -3
-6 -6 -5 -3 -3 -3 -2 -1 -1 -1 -1 -1 -1 -1 -1 -1 -1 -2 -2 -2 -2 -2 -2 -3 -3 -3 -3 -3 -3 -3 -3 -3 -3 -3 -3 -4 -4 -4 -4 -4 -3 -3 -4 -4
Wind_Speed
2 3 3 5 5 2 3 3 4 5 3 2 6 10 11 7 4 5 6 5 6 6 5 3 3 3 2 2 1 2 2 2 1 1 2 2 2 2 1 1 1 2 2 3
3 3 4 3 2 2 2 2 3 4 2 2 5 10 9 6 5 5 5 6 6 5 4 3 3 2 2 3 2 2 2 3 3 2 2 2 2 2 2 1 1 2 2 2
5 3 3 3 2 2 3 4 4 3 4 3 5 8 5 4 3 4 4 4 4 4 5 5 4 4 3 3 3 3 3 3 3 2 1 1 1 0 1 2 2 1 2 2
3 2 2 2 2 3 4 4 3 2 1 4 2 6 7 5 5 5 5 4 5 5 5 5 4 4 4 5 4 3 3 3 3 3 3 3 3 3 3 2 2 2 2 3
3 2 2 3 3 3 3 0 1 1 2 3 2 3 8 4 5 7 6 6 5 5 4 5 5 5 4 3 3 2 3 2 2 2 4 5 4 3 2 1 2 2 2 2
2 1 2 3 1 3 2 3 4 4 3 3 5 5 7 4 5 6 5 5 5 5 4 4 4 3 3 3 2 2 2 3 2 2 2 5 5 4 3 2 3 2 2 2
2 2 1 1 2 2 3 4 3 3 2 6 3 4 8 6 4 4 5 6 5 5 4 5 5 4 4 3 3 2 2 3 3 3 3 4 5 6 5 4 4 3 2 2
2 4 3 1 3 3 3 4 5 4 5 5 2 6 7 5 4 4 4 4 4 5 4 5 5 4 4 4 3 2 3 3 3 3 4 4 4 4 4 4 4 4 3 3
5 4 1 0 0 5 4 3 3 4 1 3 5 6 8 3 5 5 5 5 5 5 5 5 6 5 4 4 4 3 3 3 3 3 3 3 3 4 4 3 3 3 2 2
5 3 3 1 2 2 3 5 4 3 2 4 5 5 4 5 5 6 6 6 6 6 6 6 6 6 5 4 4 3 3 3 3 3 3 3 3 3 4 4 3 3 2 3
3 3 2 1 3 5 3 3 3 3 3 3 4 6 4 5 4 4 6 6 5 5 5 5 6 6 5 5 4 4 3 3 3 3 3 2 2 2 3 3 3 3 2 2
3 4 2 4 2 1 3 5 5 4 4 4 3 7 3 3 3 3 5 6 6 5 5 5 5 5 5 6 5 5 4 3 3 3 2 2 1 1 2 2 3 3 3 2
4 4 1 2 2 1 1 2 3 3 3 4 4 7 3 3 4 4 5 6 6 5 4 4 4 4 5 6 6 5 4 3 2 2 1 1 1 1 2 2 2 3 3 3
3 3 5 8 6 4 4 4 4 5 4 5 8 9 9 8 7 7 6 6 5 5 4 4 5 4 5 5 5 5 5 4 2 2 1 1 2 2 2 2 1 2 3 3
4 3 3 4 3 3 5 7 7 8 8 9 9 9 12 9 8 7 6 5 5 5 5 5 5 5 5 5 5 5 5 4 3 1 1 1 1 1 2 2 2 2 2 2
3 3 1 3 2 2 5 8 9 10 8 9 9 12 10 8 5 6 6 5 5 6 6 6 5 5 5 5 5 5 5 4 3 1 1 1 1 1 1 2 2 2 2 2
3 4 2 3 2 2 7 9 10 7 7 8 11 11 5 5 7 7 6 5 6 7 6 6 5 5 5 5 4 4 4 4 3 2 2 1 1 1 1 1 1 1 1 2
5 4 2 1 1 6 7 2 7 8 8 9 8 6 5 7 8 7 6 6 7 6 6 6 5 5 4 4 4 4 3 3 3 3 2 1 0 0 1 1 1 1 1 1
5 5 3 2 3 7 7 3 4 6 7 8 10 9 6 4 4 6 6 5 6 6 5 5 5 4 3 3 3 3 3 2 3 3 3 2 1 1 1 1 1 1 1 1
3 4 4 3 3 7 6 2 2 3 6 5 7 7 5 0 2 6 4 4 4 4 4 3 3 2 2 3 2 1 2 2 3 3 3 3 1 1 1 1 1 1 1 1
2 2 4 5 5 8 6 2 4 4 6 3 5 5 5 6 7 5 4 4 4 4 3 2 2 2 2 2 1 2 2 3 4 3 3 3 2 2 2 1 1 1 1 1
7 5 5 5 5 9 3 5 6 7 3 2 3 4 5 6 6 5 4 4 4 4 3 2 1 2 2 2 1 2 3 4 3 2 3 3 3 2 1 1 1 1 1 1
7 8 6 8 8 4 5 6 5 3 3 4 4 4 4 5 6 5 4 4 4 4 3 2 2 2 3 2 2 3 4 3 2 2 3 3 2 2 1 1 1 1 1 1
4 2 3 5 8 6 6 6 5 4 5 5 5 5 4 5 6 6 5 4 4 4 3 2 2 3 4 3 3 3 3 2 2 2 3 2 2 2 1 1 1 2 2 2
6 5 4 7 7 6 6 6 7 6 5 5 5 5 5 5 6 6 5 5 4 4 3 2 2 4 4 4 4 3 2 2 2 2 2 2 2 2 2 2 2 2 3 4
6 7 8 9 8 6 7 6 5 6 7 7 6 6 5 5 6 6 5 5 4 4 3 3 3 4 4 4 4 4 3 2 2 2 2 2 2 2 1 2 2 2 3 4
Wind_Direction
49 86 192 211 197 185 173 190 244 259 277 271 257 270 277 277 272 276 279 277 276 273 278 277 270 273 269 277 285 265 258 241 203 222 209 201 220 215 195 191 172 153 151 142
64 234 224 180 175 154 155 213 255 286 317 268 277 277 275 260 246 246 257 266 270 284 302 305 295 281 270 274 278 270 255 237 215 221 220 212 203 205 203 193 165 146 143 149
185 234 191 154 168 201 228 204 229 263 329 341 316 300 279 277 275 285 277 271 281 274 277 282 286 284 276 269 270 267 259 246 228 216 208 152 121 125 188 195 195 187 163 162
219 254 169 176 216 188 240 222 207 242 319 300 0 299 289 295 312 307 294 293 289 293 293 294 289 290 279 264 263 264 259 250 236 203 188 180 196 209 217 205 201 201 185 172
233 215 172 211 228 178 213 133 161 192 185 299 281 242 285 320 302 295 292 289 287 291 290 291 285 275 280 277 266 261 263 257 247 220 202 197 209 213 207 189 191 188 201 190
233 233 192 201 229 154 143 59 52 59 85 272 232 204 281 265 258 292 299 303 300 303 304 304 305 308 310 318 305 282 274 269 253 236 227 206 206 200 190 200 196 192 198 206
310 297 284 128 77 61 92 91 27 352 329 250 223 216 254 256 253 274 293 303 312 318 319 319 321 316 316 310 307 301 278 272 256 235 232 222 213 202 201 205 200 192 195 217
185 263 232 181 166 184 192 153 165 210 238 276 271 235 255 272 292 295 301 308 329 333 329 323 316 310 311 303 295 300 285 270 258 242 236 226 215 205 208 206 198 197 202 207
182 237 299 251 168 143 147 173 158 141 168 270 263 276 296 294 330 343 346 348 337 332 329 325 325 323 319 314 305 293 284 285 266 255 251 233 218 205 200 197 195 196 191 194
159 219 273 294 73 33 144 145 117 141 188 261 282 268 258 291 313 332 337 331 323 329 330 330 331 329 325 321 315 313 295 281 281 261 249 249 234 214 192 177 185 199 190 183
141 160 290 6 191 186 131 138 140 147 178 191 266 269 232 244 271 289 300 308 311 315 318 323 327 329 331 334 331 322 317 309 308 284 261 251 248 225 184 177 182 187 169 169
149 138 219 246 259 208 176 176 158 175 228 207 219 265 278 244 273 280 295 308 315 314 314 318 323 332 341 338 334 328 318 306 298 294 274 252 244 203 168 173 179 170 162 166
145 136 99 341 335 13 207 197 184 145 142 183 207 262 315 329 322 310 303 306 312 312 314 321 327 331 333 332 331 329 324 309 305 305 284 256 233 192 179 181 173 161 154 158
132 150 191 213 226 189 227 226 191 158 189 221 231 259 287 299 304 306 300 296 299 294 297 310 317 319 322 325 328 328 327 319 307 304 279 233 219 196 183 169 154 150 149 152
127 189 225 259 250 202 228 228 207 206 209 218 243 247 264 272 276 282 284 293 300 296 299 301 302 308 316 324 327 328 325 325 316 303 294 259 211 163 147 138 137 140 142 146
130 168 186 281 257 228 256 242 221 226 227 236 256 266 265 271 276 278 278 283 289 292 292 294 297 302 307 312 316 322 325 321 324 317 288 262 136 129 135 139 132 135 139 138
156 148 161 256 287 346 263 230 206 208 212 203 231 248 268 277 275 269 272 274 276 282 284 283 282 280 286 293 302 308 310 318 330 329 328 338 146 150 160 157 140 152 160 152
158 146 153 204 70 236 250 199 194 209 234 218 233 255 252 255 270 269 256 256 268 276 280 279 278 280 284 288 301 306 318 328 330 328 325 327 338 197 179 155 174 183 167 177
170 154 148 161 229 271 284 236 184 200 257 225 230 252 263 280 313 288 259 249 253 261 271 271 269 272 281 291 300 316 329 335 333 323 316 312 288 241 212 194 225 216 185 209
100 134 151 163 201 242 258 243 183 137 273 241 210 234 246 142 300 281 288 283 280 282 283 280 280 282 283 292 300 310 308 310 303 302 306 312 307 268 243 237 243 253 202 221
125 144 185 201 229 260 256 223 126 172 249 253 204 219 211 212 233 262 291 297 291 291 290 284 278 279 275 281 279 280 295 290 293 301 311 316 312 282 245 237 244 217 201 201
176 175 190 176 215 250 204 147 184 223 261 237 230 228 227 241 259 271 282 288 297 305 306 298 291 291 292 284 266 274 281 290 303 306 309 309 310 301 275 199 238 227 183 195
199 194 191 199 220 254 189 205 229 231 249 258 252 255 245 254 265 272 278 284 291 288 290 287 274 291 297 286 263 266 284 298 304 304 303 305 309 307 274 222 215 222 212 214
240 203 197 246 260 261 253 254 259 247 248 263 263 261 247 251 263 268 273 278 282 284 280 275 275 283 291 294 288 274 288 296 289 291 296 301 307 313 313 286 236 222 219 225
216 179 210 255 274 290 270 248 248 254 258 269 271 255 243 246 262 261 266 266 266 275 275 262 256 266 279 291 294 294 291 282 278 279 284 294 299 298 304 296 267 250 241 230
206 194 204 238 233 223 254 257 248 247 256 257 261 270 263 242 253 261 262 261 261 268 271 267 262 265 276 284 289 294 288 266 258 276 277 274 277 284 286 295 314 294 264 265
Height
1497 1502 1504 1504 1504 1505 1507 1509 1510 1508 1504 1505 1504 1501 1496 1493 1493 1492 1490 1489 1488 1488 1488 1488 1489 1489 1489 1488 1488 1489 1490 1491 1492 1492 1492 1493 1495 1496 1497 1499 1500 1501 1502 1503
1501 1503 1501 1502 1503 1504 1506 1508 1509 1506 1504 1504 1503 1499 1493 1490 1489 1488 1487 1486 1485 1484 1484 1484 1485 1484 1484 1484 1485 1486 1487 1487 1488 1489 1490 1491 1492 1493 1494 1496 1497 1498 1499 1500
1499 1500 1499 1501 1503 1505 1506 1508 1508 1507 1506 1504 1504 1496 1491 1487 1486 1485 1485 1484 1483 1482 1481 1481 1480 1480 1480 1480 1481 1482 1483 1484 1485 1486 1486 1488 1489 1490 1491 1492 1493 1494 1496 1497
1500 1499 1499 1500 1502 1502 1504 1503 1505 1506 1509 1511 1508 1507 1491 1488 1486 1484 1482 1481 1480 1479 1479 1478 1477 1477 1477 1478 1479 1479 1480 1481 1481 1482 1483 1483 1485 1486 1487 1488 1490 1491 1493 1494
1499 1498 1498 1500 1500 1501 1503 1502 1505 1507 1510 1514 1511 1512 1495 1490 1487 1483 1480 1479 1478 1477 1476 1475 1475 1475 1475 1475 1476 1476 1477 1477 1478 1479 1479 1480 1482 1483 1484 1486 1487 1488 1489 1491
1498 1497 1497 1498 1498 1500 1502 1505 1508 1512 1514 1517 1511 1512 1499 1492 1486 1481 1478 1477 1476 1475 1474 1473 1473 1472 1472 1472 1472 1473 1473 1473 1474 1475 1476 1477 1478 1480 1481 1482 1483 1485 1486 1487
1500 1498 1497 1497 1499 1501 1502 1508 1516 1516 1521 1514 1509 1507 1497 1484 1482 1480 1478 1476 1475 1474 1472 1471 1470 1469 1469 1469 1469 1469 1469 1470 1471 1472 1473 1474 1475 1476 1477 1479 1480 1481 1483 1483
1502 1502 1497 1497 1498 1501 1503 1505 1513 1515 1517 1512 1509 1506 1491 1482 1480 1479 1477 1476 1474 1473 1471 1470 1468 1467 1467 1466 1466 1466 1466 1466 1467 1468 1469 1470 1471 1473 1474 1475 1477 1478 1480 1481
1501 1501 1497 1496 1496 1498 1503 1506 1508 1517 1522 1521 1510 1503 1489 1480 1479 1477 1476 1475 1473 1472 1471 1469 1468 1466 1465 1464 1464 1464 1464 1464 1464 1465 1465 1466 1468 1469 1470 1472 1474 1475 1476 1478
1497 1503 1498 1497 1497 1498 1500 1504 1512 1515 1515 1512 1505 1502 1492 1483 1480 1478 1476 1474 1473 1472 1470 1469 1467 1465 1464 1463 1462 1462 1462 1461 1461 1462 1462 1463 1464 1466 1467 1469 1470 1472 1473 1474
1495 1502 1502 1500 1499 1500 1503 1506 1507 1513 1513 1512 1510 1496 1483 1481 1479 1478 1476 1474 1473 1471 1470 1468 1467 1465 1463 1462 1460 1459 1459 1458 1458 1458 1459 1460 1461 1462 1464 1465 1467 1469 1470 1471
1494 1501 1505 1501 1499 1498 1498 1501 1505 1508 1512 1514 1511 1496 1478 1477 1476 1476 1475 1473 1472 1471 1469 1468 1466 1464 1462 1460 1458 1457 1456 1456 1456 1456 1456 1456 1458 1459 1461 1462 1464 1466 1467 1468
1492 1498 1502 1499 1502 1501 1500 1500 1502 1505 1511 1515 1511 1492 1477 1476 1475 1475 1474 1472 1471 1469 1468 1467 1465 1463 1461 1459 1457 1455 1454 1453 1453 1453 1453 1454 1455 1456 1457 1459 1460 1462 1463 1465
1488 1495 1496 1493 1490 1496 1499 1499 1500 1503 1506 1508 1501 1488 1479 1476 1475 1473 1473 1471 1469 1468 1467 1465 1463 1461 1459 1457 1456 1454 1452 1452 1451 1451 1451 1451 1452 1453 1454 1455 1457 1458 1460 1461
1487 1494 1496 1494 1491 1493 1493 1493 1495 1496 1495 1495 1488 1486 1476 1474 1474 1472 1471 1469 1468 1466 1465 1463 1461 1460 1457 1455 1454 1452 1451 1450 1449 1449 1448 1448 1449 1450 1451 1453 1454 1455 1457 1458
1487 1493 1494 1494 1491 1491 1491 1487 1488 1489 1489 1488 1485 1480 1472 1471 1471 1469 1468 1467 1465 1464 1463 1461 1459 1457 1455 1454 1452 1451 1449 1448 1447 1446 1446 1446 1447 1448 1449 1450 1451 1452 1453 1454
1488 1492 1494 1494 1493 1490 1487 1479 1480 1482 1480 1481 1479 1472 1469 1469 1468 1466 1465 1464 1463 1461 1460 1459 1457 1455 1454 1452 1451 1449 1447 1446 1445 1444 1444 1444 1444 1445 1446 1447 1448 1448 1450 1451
1486 1490 1494 1496 1495 1491 1473 1470 1471 1473 1472 1472 1470 1467 1467 1466 1464 1463 1462 1462 1460 1459 1457 1456 1454 1453 1451 1450 1449 1447 1446 1445 1443 1443 1442 1442 1442 1443 1443 1444 1445 1446 1447 1448
1481 1486 1494 1496 1495 1485 1472 1469 1470 1471 1469 1465 1465 1464 1464 1463 1462 1459 1459 1458 1457 1456 1455 1453 1452 1451 1449 1448 1446 1445 1444 1443 1442 1441 1441 1440 1441 1441 1441 1441 1442 1443 1444 1445
1482 1484 1491 1495 1492 1484 1467 1465 1465 1468 1467 1459 1459 1460 1461 1461 1464 1458 1455 1455 1454 1453 1452 1450 1449 1448 1446 1446 1445 1443 1442 1441 1440 1439 1439 1439 1439 1439 1439 1439 1440 1440 1441 1441
1485 1488 1490 1491 1489 1477 1465 1464 1465 1471 1463 1456 1455 1456 1457 1457 1457 1455 1453 1452 1451 1450 1449 1447 1446 1445 1444 1443 1443 1442 1441 1440 1439 1438 1437 1437 1437 1437 1437 1437 1437 1438 1438 1439
1480 1484 1487 1488 1486 1474 1461 1462 1463 1459 1455 1454 1453 1453 1453 1452 1452 1451 1450 1449 1448 1447 1445 1444 1443 1442 1442 1441 1440 1439 1439 1438 1437 1436 1435 1435 1434 1434 1434 1434 1435 1435 1436 1436
1472 1470 1471 1470 1464 1457 1456 1455 1454 1454 1453 1452 1451 1451 1451 1450 1449 1448 1447 1446 1445 1444 1443 1442 1441 1440 1439 1439 1438 1437 1436 1435 1435 1434 1433 1432 1432 1432 1432 1432 1432 1432 1433 1433
1466 1464 1466 1465 1457 1453 1452 1451 1451 1451 1450 1450 1449 1449 1448 1447 1446 1445 1444 1443 1442 1441 1440 1439 1438 1437 1436 1436 1435 1434 1434 1433 1432 1431 1431 1430 1429 1429 1429 1429 1430 1430 1430 1430
1458 1461 1462 1460 1453 1451 1447 1447 1447 1447 1447 1447 1446 1445 1445 1444 1443 1442 1440 1440 1439 1438 1438 1437 1436 1435 1434 1433 1432 1432 1431 1430 1429 1429 1428 1427 1427 1426 1426 1427 1427 1427 1427 1428
1451 1453 1454 1449 1446 1446 1443 1443 1444 1444 1443 1443 1442 1441 1441 1440 1439 1438 1437 1436 1436 1435 1434 1434 1433 1432 1431 1430 1429 1429 1428 1428 1427 1426 1425 1425 1424 1424 1424 1424 1424 1424 1425 1425